Regional Weather Roundup
Issued by NWS

Home | Current Version | Previous Version | Text Only | Print | Product List | Glossary On
Versions: 1 2 3 4 5 6 7 8 9 10 11 12 13 14 15 16 17 18 19 20 21 22 23 24 25 26 27
000
ASUS45 KSLC 282110
RWRUT

UTAH REGIONAL WEATHER ROUNDUP
NATIONAL WEATHER SERVICE SALT LAKE CITY UT
300 PM MDT TUE MAR 28 2017

UTZ001>011-023>025-282200-

NORTHERN UTAH

CITY           SKY/WX    TMP DP  RH WIND       PRES   REMARKS
BRIGHAM CITY     N/A     52  29  40 N13       30.14F
DUGWAY         MOSUNNY   49  33  53 N14G22    30.14S
HILL AFB       MOSUNNY   51  29  42 NW16G35   30.13S
LOGAN          MOSUNNY   54  31  41 N14G21    30.14R
OGDEN          SUNNY     52  31  44 NW15G26   30.13R
SALT LAKE CITY MOSUNNY   50  32  50 NW17      30.13S
TOOELE VALLEY  SUNNY     50  36  57 N13       30.16S
WENDOVER       SUNNY     53  19  26 CALM      30.17F
HEBER CITY     CLOUDY    46  28  49 NE13G21   30.07S
WEST JORDAN    SUNNY     51  41  69 NW21G28   30.14R

$$

UTZ011>015-024>027-282200-

CENTRAL/NORTHEAST UTAH

CITY           SKY/WX    TMP DP  RH WIND       PRES   REMARKS
PROVO AIRPORT  MOSUNNY   52  36  54 NW25G31   30.11R
MOAB/CANYONLAN CLOUDY    56  34  43 E16G25    29.91S
DELTA          SUNNY     50  32  50 N12G22    30.13S
PRICE          SUNNY     51  31  46 NW21G28   29.97S
RICHFIELD      PTSUNNY   48  27  43 NW14      30.13R
ROOSEVELT      CLOUDY    54  32  43 SE3       29.98S
VERNAL         CLOUDY    55  30  38 N23G31    29.98S

$$

UTZ013>016-019>022-027-282200-

SOUTHERN UTAH

CITY           SKY/WX    TMP DP  RH WIND       PRES   REMARKS
BRYCE CANYON   SUNNY     46  23  40 N18G25    30.03S
CEDAR CITY     PTSUNNY   47  30  51 N16       30.09F
MILFORD        PTSUNNY   48  32  53 N21G26    30.12S
ST GEORGE      PTCLDY    64  27  24 N10G17    30.01S
HANKSVILLE     PTSUNNY   61  23  23 N9G16     29.92F
KANAB          SUNNY     61  23  23 NW21      30.02S
BLANDING       PTSUNNY   51  38  60 NW23      29.93F

$$

REGIONAL REPORTS     COLORADO/ARIZONA

CITY           SKY/WX    TMP DP  RH WIND       PRES   REMARKS
CRAIG, CO      LGT RAIN  43  37  79 CALM      29.93S
GRAND JUNCTION LGT RAIN  50  41  71 W7        29.90F
RIFLE, CO      LGT RAIN  48  37  65 W15       29.89S
MONTROSE, CO   CLOUDY    47  39  74 NW16      29.89F
CORTEZ, CO     CLOUDY    50  39  66 W18G25    29.81F
COLORADO CITY    N/A     59  27  29 NW20G26   30.03S
PAGE, AZ       MOSUNNY   62  26  25 N9        29.89F
GRAND CANYON   PTSUNNY   50  26  39 N10G23    29.98F
KINGMAN, AZ    SUNNY     63   9  12 N17G25    29.99F
FLAGSTAFF, AZ  CLOUDY    46  25  43 E3        29.95F

$$

REGIONAL REPORTS    NEVADA/IDAHO/WYOMING

CITY           SKY/WX    TMP DP  RH WIND       PRES   REMARKS
LAS VEGAS, NV  SUNNY     69  15  12 NE12G17   30.02F
ELY, NY        SUNNY     46  23  40 N16G24    30.18R
ELKO, NV       SUNNY     48  23  37 VRB3      30.23S
POCATELLO, ID  MOSUNNY   49  31  49 SW12      30.21S
BURLEY, ID     SUNNY     50  25  37 W15G25    30.20F
FORT BRIDGER,  CLOUDY    46  30  53 NW8       30.10S
EVANSTON, WY   SUNNY     43  23  45 N22G28    30.09S
ROCK SPRINGS,  CLOUDY    39  31  72 N9        30.06F WCI  33
KEMMERER, WY     N/A     41  28  60 W15       30.08S

$$




USA.gov is the U.S. government's official web portal to all federal, state and local government web resources and services.